This demonstration page uses our WeatherBlox Daily Observations layout. Learn more.

Hourly Observations for July 29, 2017

Temp ( °F °C ) Dew Point ( °F °C ) Humidity (%) Winds ( mph kmh ) Pressure ( in mb ) Visibility ( mi km ) Precip ( " mm )
12:53 am 00:53 Clear 67 19.4 63 17.2 87 87 N 7 11 29.91 1013 10 16.0934 0 0
1:53 am 01:53 Clear 66 18.9 62 16.7 87 87 N 7 11 29.91 1013 10 16.0934 0 0
2:53 am 02:53 Clear 65 18.3 60 15.6 84 84 NNE 9 15 29.91 1013 10 16.0934 0 0
3:53 am 03:53 Clear 64 17.8 58 14.4 81 81 N 5 7 29.92 1013 10 16.0934 0 0
4:53 am 04:53 Clear 62 16.7 57 13.9 84 84 NNW 5 7 29.93 1013 10 16.0934 0 0
5:53 am 05:53 Clear 61 16.1 57 13.9 87 87 N 5 7 29.93 1014 10 16.0934 0 0
6:53 am 06:53 Sunny 59 15 56 13.3 90 90 NNW 6 9 29.95 1014 10 16.0934 0 0
7:53 am 07:53 Sunny 63 17.2 57 13.9 81 81 N 6 9 29.97 1015 10 16.0934 0 0
8:53 am 08:53 Sunny 65 18.3 57 13.9 76 76 NNE 8 13 29.99 1016 10 16.0934 0 0
9:53 am 09:53 Sunny 69 20.6 56 13.3 63 63 NE 10 17 30 1016 10 16.0934 0 0
10:53 am 10:53 Sunny 73 22.8 57 13.9 57 57 NNE 12 19 30 1016 10 16.0934 0 0
11:53 am 11:53 Sunny 75 23.9 52 11.1 45 45 NNE 13 20 30.01 1016 10 16.0934 0 0
12:53 pm 12:53 Sunny 77 25 53 11.7 43 43 E 14 22 30.01 1016 10 16.0934 0 0
1:53 pm 13:53 Sunny 78 25.6 53 11.7 42 42 ENE 5 7 30.01 1016 10 16.0934 0 0
2:53 pm 14:53 Sunny 79 26.1 56 13.3 45 45 NNE 7 11 30.01 1016 10 16.0934 0 0
3:53 pm 15:53 Mostly Sunny 80 26.7 58 14.4 47 47 N 12 19 30.01 1016 10 16.0934 0 0
4:53 pm 16:53 Partly Cloudy 81 27.2 58 14.4 45 45 VRB 6 9 30.01 1016 10 16.0934 0 0
5:53 pm 17:53 Mostly Sunny 80 26.7 58 14.4 47 47 N 8 13 30.02 1017 10 16.0934 0 0
6:53 pm 18:53 Sunny 79 26.1 58 14.4 49 49 N 9 15 30.01 1016 10 16.0934 0 0
7:53 pm 19:53 Sunny 77 25 57 13.9 50 50 N 8 13 30.03 1017 10 16.0934 0 0
8:53 pm 20:53 Sunny 73 22.8 56 13.3 55 55 NNE 7 11 30.04 1017 10 16.0934 0 0
9:53 pm 21:53 Clear 68 20 54 12.2 61 61 NNE 5 7 30.05 1018 10 16.0934 0 0
10:53 pm 22:53 Clear 63 17.2 56 13.3 78 78 N 5 7 30.06 1018 10 16.0934 0 0
11:53 pm 23:53 Clear 63 17.2 55 12.8 76 76 N 3 6 30.07 1018 10 16.0934 0 0

Powered by AerisWeather